| time (UTC) | temp C | wind direction | speed KPH | gust KPH | rain 1hr cm | rain 24hr cm | rain mn cm | humidity % | barometer mb |
| 20260903063044 | 22 | 160 | 6.4 | 9.7 | 0.00 | 0.00 | 0.00 | 69 | 1008.0 |
| 20260903061543 | 22 | 170 | 3.2 | 6.4 | 0.00 | 2.46 | 0.00 | 66 | 1007.9 |
| 20260903060042 | 22 | 126 | 1.6 | 6.4 | 0.00 | 2.46 | 0.00 | 70 | 1008.0 |
| 20260903054541 | 22 | 129 | 3.2 | 6.4 | 0.00 | 2.46 | 0.00 | 69 | 1008.0 |
| 20260903053023 | 22 | 114 | 0.0 | 3.2 | 0.00 | 2.46 | 0.00 | 66 | 1008.0 |
| 20260903051521 | 22 | 116 | 3.2 | 6.4 | 0.00 | 3.35 | 0.00 | 68 | 1008.0 |
| 20260903050003 | 22 | 106 | 1.6 | 4.8 | 0.00 | 3.35 | 0.00 | 71 | 1008.1 |
| 20260903044502 | 22 | 113 | 3.2 | 6.4 | 0.00 | 3.35 | 0.00 | 70 | 1008.1 |
| 20260903043101 | 23 | 118 | 4.8 | 6.4 | 0.00 | 3.35 | 0.00 | 71 | 1008.1 |
| 20260903041544 | 22 | 113 | 3.2 | 6.4 | 0.00 | 3.38 | 0.00 | 72 | 1008.2 |
| 20260903040043 | 22 | 113 | 1.6 | 6.4 | 0.00 | 3.38 | 0.00 | 74 | 1008.2 |
| 20260903034523 | 23 | 127 | 3.2 | 6.4 | 0.00 | 3.38 | 0.00 | 78 | 1008.3 |
| 20260903033031 | 23 | 113 | 4.8 | 6.4 | 0.00 | 3.38 | 0.00 | 80 | 1008.4 |
| 20260903031501 | 23 | 120 | 4.8 | 8.0 | 0.00 | 3.38 | 0.00 | 83 | 1008.3 |
| 20260903030100 | 23 | 116 | 3.2 | 6.4 | 0.00 | 3.38 | 0.00 | 83 | 1008.4 |
| 20260903024545 | 23 | 136 | 3.2 | 6.4 | 0.00 | 3.38 | 0.00 | 84 | 1008.3 |
| 20260903023040 | 24 | 148 | 4.8 | 6.4 | 0.00 | 3.38 | 0.00 | 85 | 1008.3 |
| 20260903021533 | 24 | 128 | 3.2 | 6.4 | 0.00 | 3.38 | 0.00 | 85 | 1008.2 |
| 20260903020019 | 25 | 107 | 3.2 | 6.4 | 0.00 | 3.38 | 0.00 | 86 | 1008.1 |
| 20260903014502 | 25 | 136 | 3.2 | 6.4 | 0.00 | 3.38 | 0.00 | 86 | 1007.9 |
| 20260903013100 | 25 | 132 | 4.8 | 8.0 | 0.00 | 3.38 | 0.00 | 86 | 1007.7 |
| 20260903011539 | 25 | 108 | 3.2 | 8.0 | 0.00 | 3.38 | 0.00 | 86 | 1007.7 |
| 20260903010037 | 26 | 130 | 3.2 | 8.0 | 0.00 | 3.38 | 0.00 | 85 | 1007.6 |
| 20260903004521 | 27 | 133 | 3.2 | 6.4 | 0.00 | 3.38 | 0.00 | 83 | 1007.7 |
| 20260903003012 | 28 | 134 | 1.6 | 8.0 | 0.00 | 3.38 | 0.00 | 80 | 1007.7 |
| 20260903001556 | 28 | 135 | 0.0 | 4.8 | 0.00 | 3.38 | 0.00 | 76 | 1007.8 |
| 20260903000054 | 30 | 180 | 4.8 | 9.7 | 0.00 | 3.38 | 0.00 | 73 | 1007.8 |
| 20260902234537 | 30 | 167 | 4.8 | 9.7 | 0.00 | 3.38 | 0.00 | 71 | 1007.8 |
| 20260902233036 | 30 | 169 | 6.4 | 14.5 | 0.00 | 3.38 | 0.00 | 70 | 1007.9 |
| 20260902231525 | 30 | 215 | 11.3 | 17.7 | 0.00 | 3.38 | 0.00 | 68 | 1007.8 |
| 20260902230025 | 31 | 168 | 8.0 | 14.5 | 0.00 | 3.38 | 0.00 | 69 | 1007.9 |
| 20260902224524 | 31 | 165 | 6.4 | 19.3 | 0.00 | 3.38 | 0.00 | 68 | 1008.0 |
| 20260902223022 | 31 | 120 | 9.7 | 16.1 | 0.00 | 3.38 | 0.00 | 65 | 1007.9 |
| 20260902221521 | 31 | 162 | 8.0 | 17.7 | 0.00 | 3.38 | 0.00 | 64 | 1008.0 |
| 20260902220020 | 31 | 198 | 11.3 | 19.3 | 0.00 | 3.38 | 0.00 | 63 | 1008.2 |
| 20260902214526 | 31 | 153 | 11.3 | 20.9 | 0.00 | 3.38 | 0.00 | 64 | 1008.2 |
| 20260902213017 | 31 | 159 | 9.7 | 16.1 | 0.00 | 3.38 | 0.00 | 66 | 1008.3 |
| 20260902211605 | 31 | 169 | 8.0 | 12.9 | 0.00 | 3.38 | 0.00 | 66 | 1008.4 |
| 20260902204537 | 31 | 206 | 9.7 | 17.7 | 0.00 | 3.38 | 0.00 | 63 | 1008.5 |
| 20260902203035 | 31 | 195 | 8.0 | 14.5 | 0.00 | 3.38 | 0.00 | 66 | 1008.6 |
| 20260902201528 | 30 | 197 | 8.0 | 14.5 | 0.00 | 3.38 | 0.00 | 65 | 1008.7 |
| 20260902200026 | 31 | 204 | 6.4 | 14.5 | 0.00 | 3.38 | 0.00 | 64 | 1008.9 |
| 20260902194518 | 30 | 257 | 4.8 | 11.3 | 0.00 | 3.38 | 0.00 | 64 | 1008.9 |
| 20260902193015 | 30 | 226 | 3.2 | 11.3 | 0.00 | 3.38 | 0.00 | 65 | 1009.1 |
| 20260902191514 | 30 | 214 | 8.0 | 14.5 | 0.00 | 3.38 | 0.00 | 63 | 1009.3 |
| 20260902190010 | 30 | 261 | 6.4 | 14.5 | 0.00 | 3.38 | 0.00 | 65 | 1009.4 |
| 20260902184507 | 30 | 194 | 3.2 | 12.9 | 0.00 | 3.38 | 0.00 | 64 | 1009.4 |
| 20260902183005 | 30 | 177 | 3.2 | 9.7 | 0.00 | 3.38 | 0.00 | 65 | 1009.6 |
| 20260902181544 | 29 | 278 | 4.8 | 9.7 | 0.00 | 3.38 | 0.00 | 68 | 1009.8 |
| 20260902180045 | 28 | 254 | 4.8 | 9.7 | 0.00 | 3.38 | 0.00 | 69 | 1009.9 |
| 20260902174521 | 28 | 256 | 1.6 | 8.0 | 0.00 | 3.38 | 0.00 | 74 | 1010.1 |
| 20260902173017 | 27 | 251 | 3.2 | 9.7 | 0.00 | 3.38 | 0.00 | 77 | 1010.3 |
| 20260902171602 | 28 | 254 | 1.6 | 8.0 | 0.00 | 3.38 | 3.38 | 74 | 1010.3 |
| 20260902170058 | 28 | 208 | 1.6 | 9.7 | 0.00 | 3.38 | 3.38 | 74 | 1010.1 |
| 20260902164541 | 27 | 229 | 3.2 | 12.9 | 0.00 | 3.38 | 3.38 | 82 | 1010.4 |
| 20260902163052 | 26 | 167 | 9.7 | 17.7 | 0.00 | 3.38 | 3.38 | 83 | 1010.6 |
| 20260902161526 | 26 | 204 | 6.4 | 17.7 | 0.00 | 3.38 | 3.38 | 86 | 1010.5 |
| 20260902160021 | 25 | 227 | 6.4 | 17.7 | 0.00 | 3.38 | 3.38 | 86 | 1010.4 |
| 20260902154503 | 24 | 197 | 12.9 | 19.3 | 0.00 | 3.38 | 3.38 | 66 | 1010.5 |
| 20260902153003 | 23 | 206 | 12.9 | 17.7 | 0.00 | 3.38 | 3.38 | 47 | 1010.5 |
| 20260902151551 | 23 | 212 | 8.0 | 19.3 | 0.00 | 3.38 | 3.38 | 45 | 1010.3 |
| 20260902150043 | 22 | 218 | 8.0 | 17.7 | 0.00 | 3.38 | 3.38 | 44 | 1009.9 |
| 20260902144534 | 22 | 232 | 9.7 | 16.1 | 0.00 | 3.38 | 3.38 | 44 | 1009.8 |
| 20260902143025 | 22 | 175 | 9.7 | 16.1 | 0.00 | 3.38 | 3.38 | 43 | 1009.9 |
| 20260902141506 | 21 | 201 | 8.0 | 17.7 | 0.00 | 3.38 | 3.38 | 43 | 1010.1 |
| 20260902140006 | 21 | 203 | 3.2 | 8.0 | 0.00 | 3.38 | 3.38 | 43 | 1010.1 |
| 20260902134602 | 20 | 205 | 6.4 | 14.5 | 0.00 | 3.38 | 3.38 | 43 | 1010.1 |
| 20260902133049 | 20 | 205 | 8.0 | 12.9 | 0.00 | 3.38 | 3.38 | 42 | 1009.9 |
| 20260902131544 | 20 | 165 | 4.8 | 12.9 | 0.00 | 3.38 | 3.38 | 43 | 1009.7 |
| 20260902130033 | 18 | 171 | 4.8 | 11.3 | 0.00 | 3.38 | 3.38 | 43 | 1009.7 |
| 20260902124535 | 19 | 108 | 1.6 | 6.4 | 0.00 | 3.38 | 3.38 | 43 | 1009.9 |
| 20260902123031 | -17 | 0.0 | 0.0 | 0.00 | 3.38 | 3.38 | 1009.9 | ||
| 20260902121530 | -17 | 0.0 | 0.0 | 0.00 | 3.38 | 3.38 | 1010.0 | ||
| 20260902120034 | -17 | 0.0 | 0.0 | 0.00 | 3.38 | 3.38 | 1009.9 | ||
| 20260902114531 | -17 | 0.0 | 0.0 | 0.00 | 3.38 | 3.38 | 1010.3 | ||
| 20260902113026 | -17 | 0.0 | 0.0 | 0.00 | 3.38 | 3.38 | 1010.2 | ||
| 20260902111512 | -17 | 0.0 | 0.0 | 0.00 | 3.38 | 3.38 | 1010.1 | ||
| 20260902110101 | -17 | 0.0 | 0.0 | 0.00 | 3.38 | 3.38 | 1010.0 | ||
| 20260902104538 | -17 | 0.0 | 0.0 | 0.00 | 3.38 | 3.38 | 1010.0 | ||
| 20260902103039 | -17 | 0.0 | 0.0 | 0.00 | 3.38 | 3.38 | 1009.9 | ||
| 20260902101514 | -17 | 0.0 | 0.0 | 0.00 | 3.38 | 3.38 | 1009.9 | ||
| 20260902100008 | -17 | 0.0 | 0.0 | 0.00 | 3.38 | 3.38 | 1010.1 | ||
| 20260902094547 | 19 | 99 | 11.3 | 19.3 | 0.00 | 3.38 | 3.38 | 44 | 1010.4 |
| 20260902093047 | 19 | 117 | 11.3 | 19.3 | 0.00 | 3.38 | 3.38 | 43 | 1010.8 |
| 20260902091556 | 19 | 117 | 9.7 | 14.5 | 0.00 | 3.38 | 3.38 | 44 | 1011.5 |
| 20260902090029 | 19 | 220 | 0.0 | 8.0 | 0.00 | 3.38 | 3.38 | 44 | 1012.4 |
| 20260902084511 | 19 | 227 | 11.3 | 20.9 | 0.00 | 3.38 | 3.38 | 43 | 1012.3 |
| 20260902083010 | 19 | 148 | 4.8 | 12.9 | 0.00 | 3.38 | 3.38 | 43 | 1010.6 |
| 20260902081551 | 19 | 118 | 11.3 | 16.1 | 0.00 | 3.38 | 3.38 | 44 | 1009.9 |
| 20260902080104 | 19 | 170 | 3.2 | 9.7 | 0.00 | 3.38 | 3.38 | 44 | 1010.4 |
| 20260902074534 | 19 | 95 | 3.2 | 12.9 | 0.00 | 3.38 | 3.38 | 44 | 1010.2 |
| 20260902073033 | 18 | 91 | 8.0 | 25.7 | 0.00 | 3.38 | 3.38 | 45 | 1009.6 |
| 20260902071534 | 18 | 134 | 19.3 | 25.7 | 0.00 | 3.38 | 3.38 | 45 | 1009.0 |
| 20260902070010 | 18 | 120 | 12.9 | 16.1 | 0.03 | 3.38 | 3.38 | 45 | 1009.4 |
| 20260902064617 | 18 | 85 | 6.4 | 14.5 | 0.51 | 3.38 | 3.38 | 45 | 1010.4 |